Change the Weather History Date:

Friday, August 29, 2014

  Actual Average Record
Temperature  
Mean Temperature 79 °F 78 °F  
Max Temperature 93 °F 90 °F 104 °F (2000)
Min Temperature 65 °F 67 °F 53 °F (1992)
Degree Days  
Heating Degree Days 0 0  
Month to date heating degree days 0 0  
Since 1 June heating degree days 0 1  
Since 1 July heating degree days 0 0  
Cooling Degree Days 14 13  
Month to date cooling degree days 400 434  
Year to date cooling degree days 1425 1517  
Since 1 June cooling degree days 1168 1273  
Growing Degree Days 28 (Base 50)    
Moisture  
Dew Point 63 °F    
Average Humidity 63    
Maximum Humidity 93    
Minimum Humidity 32    
Precipitation  
Precipitation 0.00 in 0.11 in 3.51 in (2005)
Month to date precipitation 3.62 2.95  
Year to date precipitation 32.90 35.51  
Snow  
Snow 0.00 in - - ()
Month to date snowfall 0.0  
Since 1 June snowfall 0.0  
Since 1 July snowfall 0.0  
Snow Depth 0.00 in    
Sea Level Pressure  
Sea Level Pressure 30.00 in    
Wind  
Wind Speed 2 mph (South)    
Max Wind Speed 12 mph    
Max Gust Speed 17 mph    
Visibility 10 miles    
Events      
T = Trace of Precipitation, MM = Missing Value Source: NWS Daily Summary

Daily Weather History Graph

Daily Weather History Graph

Search for Another Location

Airport or City:

Trip Planner

Search our weather history database for the weather conditions in past years. The results will help you decide how hot, cold, wet, or windy it might be!

Date:

Astronomy

Aug. 29, 2014 Rise Set
Actual Time 6:21 AM CDT 7:20 PM CDT
Civil Twilight 5:55 AM CDT 7:46 PM CDT
Nautical Twilight 5:24 AM CDT 8:17 PM CDT
Astronomical Twilight 4:52 AM CDT 8:48 PM CDT
Moon 9:59 AM CDT (8/29) 9:30 PM CDT (8/29)
Length of Visible Light 13h 51m
Length of Day
12h 59m
Waxing Crescent, 15% of the Moon is Illuminated
Aug 29
Waxing Crescent
Sep 2
First Quarter
Sep 8
Full
Sep 15
Last Quarter
Sep 24
New

Hourly Weather History & Observations

Time (CDT) Temp. Heat Index Dew Point Humidity Pressure Visibility Wind Dir Wind Speed Gust Speed Precip Events Conditions
12:53 AM 70.0 °F - 64.9 °F 84% 29.99 in 9.0 mi Calm Calm - N/A   Clear
1:53 AM 68.0 °F - 64.0 °F 87% 29.99 in 8.0 mi Calm Calm - N/A   Clear
2:53 AM 66.9 °F - 63.0 °F 87% 29.98 in 8.0 mi Calm Calm - N/A   Clear
3:53 AM 68.0 °F - 62.1 °F 81% 29.99 in 10.0 mi Calm Calm - N/A   Clear
4:53 AM 66.0 °F - 62.1 °F 87% 29.99 in 10.0 mi Calm Calm - N/A   Clear
5:53 AM 66.0 °F - 62.1 °F 87% 30.00 in 9.0 mi Calm Calm - N/A   Clear
6:53 AM 66.9 °F - 64.0 °F 90% 30.01 in 7.0 mi Calm Calm - N/A   Clear
7:53 AM 73.0 °F - 64.0 °F 73% 30.03 in 10.0 mi East 4.6 mph - N/A   Clear
8:53 AM 77.0 °F - 64.9 °F 66% 30.03 in 10.0 mi Calm Calm - N/A   Clear
9:53 AM 81.0 °F 83.0 °F 66.0 °F 60% 30.04 in 10.0 mi Calm Calm - N/A   Clear
10:53 AM 87.1 °F 88.3 °F 64.0 °F 46% 30.03 in 10.0 mi South 5.8 mph - N/A   Clear
11:53 AM 90.0 °F 89.7 °F 60.1 °F 37% 30.03 in 10.0 mi South 6.9 mph - N/A   Clear
12:53 PM 91.0 °F 90.5 °F 60.1 °F 35% 30.02 in 10.0 mi SSW 9.2 mph - N/A   Clear
1:53 PM 91.9 °F 90.6 °F 57.0 °F 31% 30.01 in 10.0 mi SSW 5.8 mph - N/A   Clear
3:53 PM 91.0 °F 90.0 °F 57.9 °F 33% 29.97 in 10.0 mi Calm Calm - N/A   Clear
4:53 PM 91.0 °F 90.2 °F 59.0 °F 34% 29.97 in 10.0 mi Calm Calm - N/A   Clear
5:53 PM 89.1 °F 90.0 °F 63.0 °F 42% 29.98 in 10.0 mi Calm Calm - N/A   Clear
6:53 PM 86.0 °F 88.2 °F 66.0 °F 51% 29.97 in 10.0 mi Calm Calm - N/A   Clear
7:53 PM 75.9 °F - 68.0 °F 76% 29.97 in 10.0 mi Calm Calm - N/A   Clear
8:53 PM 73.9 °F - 66.0 °F 76% 30.00 in 10.0 mi Calm Calm - N/A   Clear
10:53 PM 73.0 °F - 66.0 °F 79% 30.03 in 10.0 mi Calm Calm - N/A   Clear
11:53 PM 72.0 °F - 66.0 °F 81% 30.05 in 10.0 mi Calm Calm - N/A   Clear